Palmdale Regional/USAF Plant 42 Airport
KPMD : now visible

Airfield :











YOU CAN JOIN US ON...

 
LOGIN :

Register | Disclaimer

   EN    FR    IT 

 









Legend :    VFR   Marginal VFR   IFR   Intensive IFR   Very Intensive IFR
Visi :
Ceiling :
>= 8 km
>= 3000ft
5 to 8 km
1000 to 3000 ft
1500m to 5 km
500 to 1000 ft
800 to 1500m
200 to 500 ft
< 800m
< 200 ft
Symbols :   Thunderstorms  Fog  Heavy snow  Heavy precipitations  Wind > 20 kt






- Airport Elevation : 2543 ft
- IATA code : PMD


KPMD - Palmdale Regional/USAF Plant 42

CURRENT METAR :
  • 172253Z 24016G24KT 10SM CLR 42/07 A2981 RMK AO2 PK WND 23027/2208 SLP055 T04170067

EXPIRED METARs :
  • 172153Z 22016KT 10SM CLR 43/08 A2981 RMK AO2 SLP055 T04280078
  • 172053Z 10SM CLR 43/05 A2983 RMK AO2 SLP061 T04280050 57023

TAF KPMD
Valid from the 17 at 18:00 until the 18 at 18:00 UTC


171721Z 1718/1818 24008KT P6SM SCT200
FM172000 23014G20KT P6SM SCT200
FM180300 23012KT P6SM SCT200
FM180800 20007KT P6SM SCT200
KZLA FIR / North America



MET'MAP, your aeronautical weather chart ! - Copyright ORBIFLY December 2007 - Disclaimer

ORBIFLY MET'MAP TEAM :

Programming & Development : Alexandra Zaïnal
Concept & original design : Baudouin d'Aumeries
Assistance for programming : Marc-Olivier Méhu
Technical & hardware support : Manuel Goepfert

Contact : metmap@orbifly.com




SOURCES & CREDITS :

   NOAA       Earth
Advisory